Time,TemperatureF,DewpointF,PressureIn,WindDirection,WindDirectionDegrees,WindSpeedMPH,WindSpeedGustMPH,Humidity,HourlyPrecipIn,Conditions,Clouds,dailyrainin,SolarRadiationWatts/m^2,SoftwareType,DateUTC
2013-04-18 00:03:00,49.0,30.0,-100.00,WSW,247,4.0,8.0,47,0.00,,,0.02,0.000000,,2013-04-18 04:03:00,
2013-04-18 00:13:00,49.0,30.0,-100.00,WSW,247,4.0,8.0,47,0.00,,,0.02,0.000000,,2013-04-18 04:13:00,
2013-04-18 00:33:00,49.0,30.0,-100.00,WSW,245,4.0,10.0,48,0.00,,,0.00,0.000000,,2013-04-18 04:33:00,
2013-04-18 00:43:00,49.0,30.0,-100.00,WSW,245,4.0,10.0,48,0.00,,,0.00,0.000000,,2013-04-18 04:43:00,
2013-04-18 00:53:00,49.0,30.0,-100.00,WSW,245,4.0,10.0,48,0.00,,,0.00,0.000000,,2013-04-18 04:53:00,
2013-04-18 01:02:00,49.0,30.0,-100.00,WSW,245,4.0,10.0,48,0.00,,,0.00,0.000000,,2013-04-18 05:02:00,
2013-04-18 01:12:00,49.0,30.0,-100.00,WSW,245,4.0,10.0,48,0.00,,,0.00,0.000000,,2013-04-18 05:12:00,
2013-04-18 01:42:00,48.0,29.0,-100.00,West,272,4.0,12.0,47,0.00,,,0.00,0.000000,,2013-04-18 05:42:00,
2013-04-18 01:52:00,48.0,29.0,-100.00,West,272,4.0,12.0,47,0.00,,,0.00,0.000000,,2013-04-18 05:52:00,
2013-04-18 02:02:00,48.0,29.0,-100.00,West,272,4.0,12.0,47,0.00,,,0.00,0.000000,,2013-04-18 06:02:00,
2013-04-18 02:12:00,48.0,29.0,-100.00,West,272,4.0,12.0,47,0.00,,,0.00,0.000000,,2013-04-18 06:12:00,
2013-04-18 02:32:00,49.0,30.0,-100.00,West,273,6.0,10.0,48,0.00,,,0.00,0.000000,,2013-04-18 06:32:00,
2013-04-18 02:42:00,49.0,30.0,-100.00,West,273,6.0,10.0,48,0.00,,,0.00,0.000000,,2013-04-18 06:42:00,
2013-04-18 02:52:00,49.0,30.0,-100.00,West,273,6.0,10.0,48,0.00,,,0.00,0.000000,,2013-04-18 06:52:00,
2013-04-18 03:02:00,49.0,30.0,-100.00,West,273,6.0,10.0,48,0.00,,,0.00,0.000000,,2013-04-18 07:02:00,
2013-04-18 03:12:00,49.0,30.0,-100.00,West,273,6.0,10.0,48,0.00,,,0.00,0.000000,,2013-04-18 07:12:00,
2013-04-18 03:42:00,48.0,29.0,-100.00,West,271,8.0,11.0,48,0.00,,,0.00,0.000000,,2013-04-18 07:42:00,
2013-04-18 03:53:00,48.0,29.0,-100.00,West,271,8.0,11.0,48,0.00,,,0.00,0.000000,,2013-04-18 07:53:00,
2013-04-18 04:02:00,48.0,29.0,-100.00,West,271,8.0,11.0,48,0.00,,,0.00,0.000000,,2013-04-18 08:02:00,
2013-04-18 04:12:00,48.0,29.0,-100.00,West,271,8.0,11.0,48,0.00,,,0.00,0.000000,,2013-04-18 08:12:00,
2013-04-18 04:42:00,50.0,32.0,-100.00,West,271,9.0,14.0,49,0.00,,,0.00,0.000000,,2013-04-18 08:42:00,
2013-04-18 04:52:00,50.0,32.0,-100.00,West,271,9.0,14.0,49,0.00,,,0.00,0.000000,,2013-04-18 08:52:00,
2013-04-18 05:02:00,50.0,32.0,-100.00,West,271,9.0,14.0,49,0.00,,,0.00,0.000000,,2013-04-18 09:02:00,
2013-04-18 05:12:00,50.0,32.0,-100.00,West,271,9.0,14.0,49,0.00,,,0.00,0.000000,,2013-04-18 09:12:00,
2013-04-18 05:43:00,51.0,35.0,-100.00,West,270,10.0,15.0,54,0.00,,,0.00,0.000000,,2013-04-18 09:43:00,
2013-04-18 05:53:00,51.0,35.0,-100.00,West,270,10.0,15.0,54,0.00,,,0.00,0.000000,,2013-04-18 09:53:00,
2013-04-18 06:03:00,51.0,35.0,-100.00,West,270,10.0,15.0,54,0.00,,,0.00,0.000000,,2013-04-18 10:03:00,
2013-04-18 06:12:00,51.0,35.0,-100.00,West,270,10.0,15.0,54,0.00,,,0.00,0.000000,,2013-04-18 10:12:00,
2013-04-18 06:33:00,51.0,38.0,-100.00,West,263,8.0,16.0,61,0.00,,,0.00,0.000000,,2013-04-18 10:33:00,
2013-04-18 06:42:00,51.0,38.0,-100.00,West,263,8.0,16.0,61,0.00,,,0.00,0.000000,,2013-04-18 10:42:00,
2013-04-18 06:53:00,51.0,38.0,-100.00,West,263,8.0,16.0,61,0.00,,,0.00,0.000000,,2013-04-18 10:53:00,
2013-04-18 07:03:00,51.0,38.0,-100.00,West,263,8.0,16.0,61,0.00,,,0.00,0.000000,,2013-04-18 11:03:00,
2013-04-18 07:12:00,51.0,38.0,-100.00,West,263,8.0,16.0,61,0.00,,,0.00,0.000000,,2013-04-18 11:12:00,
2013-04-18 07:32:00,51.0,43.0,-100.00,West,261,9.0,15.0,73,0.00,,,0.00,4.000000,,2013-04-18 11:32:00,
2013-04-18 07:42:00,51.0,43.0,-100.00,West,261,9.0,15.0,73,0.00,,,0.00,4.000000,,2013-04-18 11:42:00,
2013-04-18 07:52:00,51.0,43.0,-100.00,West,261,9.0,15.0,73,0.00,,,0.00,4.000000,,2013-04-18 11:52:00,
2013-04-18 08:02:00,51.0,43.0,-100.00,West,261,9.0,15.0,73,0.00,,,0.00,4.000000,,2013-04-18 12:02:00,
2013-04-18 08:12:00,51.0,43.0,-100.00,West,261,9.0,15.0,73,0.00,,,0.00,4.000000,,2013-04-18 12:12:00,
2013-04-18 08:42:00,52.0,46.0,-100.00,West,265,10.0,15.0,81,0.00,,,0.00,18.000000,,2013-04-18 12:42:00,
2013-04-18 08:53:00,52.0,46.0,-100.00,West,265,10.0,15.0,81,0.00,,,0.00,18.000000,,2013-04-18 12:53:00,
2013-04-18 09:03:00,52.0,46.0,-100.00,West,265,10.0,15.0,81,0.00,,,0.00,18.000000,,2013-04-18 13:03:00,
2013-04-18 09:12:00,52.0,46.0,-100.00,West,265,10.0,15.0,81,0.00,,,0.00,18.000000,,2013-04-18 13:12:00,
2013-04-18 09:43:00,52.0,49.0,-100.00,West,268,9.0,18.0,89,0.00,,,0.00,25.000000,,2013-04-18 13:43:00,
2013-04-18 09:53:00,52.0,49.0,-100.00,West,268,9.0,18.0,89,0.00,,,0.00,25.000000,,2013-04-18 13:53:00,
2013-04-18 10:03:00,52.0,49.0,-100.00,West,268,9.0,18.0,89,0.00,,,0.00,25.000000,,2013-04-18 14:03:00,
2013-04-18 10:12:00,52.0,49.0,-100.00,West,268,9.0,18.0,89,0.00,,,0.00,25.000000,,2013-04-18 14:12:00,
2013-04-18 10:33:00,53.0,50.0,-100.00,WSW,254,12.0,18.0,88,0.00,,,0.00,55.000000,,2013-04-18 14:33:00,
2013-04-18 10:43:00,53.0,50.0,-100.00,WSW,254,12.0,18.0,88,0.00,,,0.00,55.000000,,2013-04-18 14:43:00,
2013-04-18 10:52:00,53.0,50.0,-100.00,WSW,254,12.0,18.0,88,0.00,,,0.00,55.000000,,2013-04-18 14:52:00,
2013-04-18 11:03:00,53.0,50.0,-100.00,WSW,254,12.0,18.0,88,0.00,,,0.00,55.000000,,2013-04-18 15:03:00,
2013-04-18 11:12:00,53.0,50.0,-100.00,WSW,254,12.0,18.0,88,0.00,,,0.00,55.000000,,2013-04-18 15:12:00,
2013-04-18 11:33:00,54.0,48.0,-100.00,West,267,10.0,20.0,81,0.00,,,0.00,128.000000,,2013-04-18 15:33:00,
2013-04-18 11:43:00,54.0,48.0,-100.00,West,267,10.0,20.0,81,0.00,,,0.00,128.000000,,2013-04-18 15:43:00,
2013-04-18 11:53:00,54.0,48.0,-100.00,West,267,10.0,20.0,81,0.00,,,0.00,128.000000,,2013-04-18 15:53:00,
2013-04-18 12:03:00,54.0,48.0,-100.00,West,267,10.0,20.0,81,0.00,,,0.00,128.000000,,2013-04-18 16:03:00,
2013-04-18 12:13:00,54.0,48.0,-100.00,West,267,10.0,20.0,81,0.00,,,0.00,128.000000,,2013-04-18 16:13:00,
2013-04-18 12:33:00,54.0,48.0,-100.00,West,265,11.0,23.0,79,0.00,,,0.00,152.000000,,2013-04-18 16:33:00,
2013-04-18 12:43:00,54.0,48.0,-100.00,West,265,11.0,23.0,79,0.00,,,0.00,152.000000,,2013-04-18 16:43:00,
2013-04-18 12:53:00,54.0,48.0,-100.00,West,265,11.0,23.0,79,0.00,,,0.00,152.000000,,2013-04-18 16:53:00,
2013-04-18 13:03:00,54.0,48.0,-100.00,West,265,11.0,23.0,79,0.00,,,0.00,152.000000,,2013-04-18 17:03:00,
2013-04-18 13:12:00,54.0,48.0,-100.00,West,265,11.0,23.0,79,0.00,,,0.00,152.000000,,2013-04-18 17:12:00,
2013-04-18 13:43:00,54.0,48.0,-100.00,West,263,11.0,20.0,80,0.00,,,0.00,165.000000,,2013-04-18 17:43:00,
2013-04-18 13:52:00,54.0,48.0,-100.00,West,263,11.0,20.0,80,0.00,,,0.00,165.000000,,2013-04-18 17:52:00,
2013-04-18 14:03:00,54.0,48.0,-100.00,West,263,11.0,20.0,80,0.00,,,0.00,165.000000,,2013-04-18 18:03:00,
2013-04-18 14:13:00,54.0,48.0,-100.00,West,263,11.0,20.0,80,0.00,,,0.00,165.000000,,2013-04-18 18:13:00,
2013-04-18 14:43:00,54.0,49.0,-100.00,West,263,11.0,19.0,84,0.00,,,0.00,176.000000,,2013-04-18 18:43:00,
2013-04-18 14:53:00,54.0,49.0,-100.00,West,263,11.0,19.0,84,0.00,,,0.00,176.000000,,2013-04-18 18:53:00,
2013-04-18 15:03:00,54.0,49.0,-100.00,West,263,11.0,19.0,84,0.00,,,0.00,176.000000,,2013-04-18 19:03:00,
2013-04-18 15:12:00,54.0,49.0,-100.00,West,263,11.0,19.0,84,0.00,,,0.00,176.000000,,2013-04-18 19:12:00,
2013-04-18 15:43:00,53.0,50.0,-100.00,West,275,12.0,21.0,88,0.00,,,0.00,123.000000,,2013-04-18 19:43:00,
2013-04-18 15:53:00,53.0,50.0,-100.00,West,275,12.0,21.0,88,0.00,,,0.00,123.000000,,2013-04-18 19:53:00,
2013-04-18 16:03:00,53.0,50.0,-100.00,West,275,12.0,21.0,88,0.00,,,0.00,123.000000,,2013-04-18 20:03:00,
2013-04-18 16:12:00,53.0,50.0,-100.00,West,275,12.0,21.0,88,0.00,,,0.00,123.000000,,2013-04-18 20:12:00,
2013-04-18 16:43:00,53.0,50.0,-100.00,West,264,12.0,21.0,91,0.00,,,0.00,80.000000,,2013-04-18 20:43:00,
2013-04-18 16:52:00,53.0,50.0,-100.00,West,264,12.0,21.0,91,0.00,,,0.00,80.000000,,2013-04-18 20:52:00,
2013-04-18 17:03:00,53.0,50.0,-100.00,West,264,12.0,21.0,91,0.00,,,0.00,80.000000,,2013-04-18 21:03:00,
2013-04-18 17:12:00,53.0,50.0,-100.00,West,264,12.0,21.0,91,0.00,,,0.00,80.000000,,2013-04-18 21:12:00,
2013-04-18 17:43:00,53.0,51.0,-100.00,West,264,11.0,19.0,94,0.00,,,0.00,42.000000,,2013-04-18 21:43:00,
2013-04-18 17:53:00,53.0,51.0,-100.00,West,264,11.0,19.0,94,0.00,,,0.00,42.000000,,2013-04-18 21:53:00,
2013-04-18 18:03:00,53.0,51.0,-100.00,West,264,11.0,19.0,94,0.00,,,0.00,42.000000,,2013-04-18 22:03:00,
2013-04-18 18:13:00,53.0,51.0,-100.00,West,264,11.0,19.0,94,0.00,,,0.00,42.000000,,2013-04-18 22:13:00,
2013-04-18 18:42:00,53.0,52.0,-100.00,West,272,10.0,18.0,98,0.00,,,0.00,26.000000,,2013-04-18 22:42:00,
2013-04-18 18:53:00,53.0,52.0,-100.00,West,272,10.0,18.0,98,0.00,,,0.00,26.000000,,2013-04-18 22:53:00,
2013-04-18 19:04:00,53.0,52.0,-100.00,West,272,10.0,18.0,98,0.00,,,0.00,26.000000,,2013-04-18 23:04:00,
2013-04-18 19:12:00,53.0,52.0,-100.00,West,272,10.0,18.0,98,0.00,,,0.00,26.000000,,2013-04-18 23:12:00,
2013-04-18 19:42:00,55.0,55.0,-100.00,West,275,13.0,21.0,99,0.00,,,0.00,17.000000,,2013-04-18 23:42:00,
2013-04-18 19:52:00,55.0,55.0,-100.00,West,275,13.0,21.0,99,0.00,,,0.00,17.000000,,2013-04-18 23:52:00,
2013-04-18 20:01:00,55.0,55.0,-100.00,West,275,13.0,21.0,99,0.00,,,0.00,17.000000,,2013-04-19 00:01:00,
2013-04-18 20:12:00,55.0,55.0,-100.00,West,275,13.0,21.0,99,0.00,,,0.00,17.000000,,2013-04-19 00:12:00,
2013-04-18 20:42:00,56.0,56.0,-100.00,West,268,13.0,20.0,99,0.00,,,0.00,1.000000,,2013-04-19 00:42:00,
2013-04-18 20:52:00,56.0,56.0,-100.00,West,268,13.0,20.0,99,0.00,,,0.00,1.000000,,2013-04-19 00:52:00,
2013-04-18 21:01:00,56.0,56.0,-100.00,West,268,13.0,20.0,99,0.00,,,0.00,1.000000,,2013-04-19 01:01:00,
2013-04-18 21:11:00,56.0,56.0,-100.00,West,268,13.0,20.0,99,0.00,,,0.00,1.000000,,2013-04-19 01:11:00,
2013-04-18 21:42:00,57.0,56.0,-100.00,West,277,12.0,23.0,97,0.00,,,0.00,0.000000,,2013-04-19 01:42:00,
2013-04-18 21:52:00,57.0,56.0,-100.00,West,277,12.0,23.0,97,0.00,,,0.00,0.000000,,2013-04-19 01:52:00,
2013-04-18 22:02:00,57.0,56.0,-100.00,West,277,12.0,23.0,97,0.00,,,0.00,0.000000,,2013-04-19 02:02:00,
2013-04-18 22:11:00,57.0,56.0,-100.00,West,277,12.0,23.0,97,0.00,,,0.00,0.000000,,2013-04-19 02:11:00,
2013-04-18 22:42:00,58.0,57.0,-100.00,West,265,13.0,24.0,95,0.00,,,0.00,0.000000,,2013-04-19 02:42:00,
2013-04-18 22:52:00,58.0,57.0,-100.00,West,265,13.0,24.0,95,0.00,,,0.00,0.000000,,2013-04-19 02:52:00,
2013-04-18 23:01:00,58.0,57.0,-100.00,West,265,13.0,24.0,95,0.00,,,0.00,0.000000,,2013-04-19 03:01:00,
2013-04-18 23:12:00,58.0,57.0,-100.00,West,265,13.0,24.0,95,0.00,,,0.00,0.000000,,2013-04-19 03:12:00,
2013-04-18 23:43:00,58.0,56.0,-100.00,West,274,13.0,24.0,92,0.00,,,0.00,0.000000,,2013-04-19 03:43:00,
2013-04-18 23:53:00,58.0,56.0,-100.00,West,274,13.0,24.0,92,0.00,,,0.00,0.000000,,2013-04-19 03:53:00,